TimeCST,TemperatureF,Dew PointF,Humidity,Sea Level PressureIn,VisibilityMPH,Wind Direction,Wind SpeedMPH,Gust SpeedMPH,PrecipitationIn,Events,Conditions,WindDirDegrees,DateUTC
12:18 AM,17.6,10.4,73,29.77,10.0,SW,19.6,31.1,N/A,,Overcast,230,2011-01-01 06:18:00
12:43 AM,15.8,6.8,68,29.76,10.0,SW,26.5,33.4,N/A,,Scattered Clouds,230,2011-01-01 06:43:00
12:52 AM,15.1,5.0,64,29.79,10.0,WSW,25.3,33.4,N/A,,Partly Cloudy,240,2011-01-01 06:52:00
1:52 AM,14.0,3.0,62,29.81,10.0,SW,25.3,32.2,N/A,,Scattered Clouds,220,2011-01-01 07:52:00
2:52 AM,12.0,-0.9,56,29.80,10.0,SW,23.0,32.2,N/A,,Clear,230,2011-01-01 08:52:00
3:52 AM,9.0,-4.0,56,29.82,10.0,WSW,23.0,31.1,N/A,,Clear,240,2011-01-01 09:52:00
4:52 AM,9.0,-4.0,56,29.83,10.0,WSW,23.0,28.8,N/A,,Partly Cloudy,240,2011-01-01 10:52:00
5:52 AM,9.0,-4.0,56,29.85,10.0,WSW,19.6,26.5,N/A,,Partly Cloudy,240,2011-01-01 11:52:00
6:52 AM,9.0,-2.0,61,29.88,10.0,SW,19.6,25.3,N/A,,Partly Cloudy,230,2011-01-01 12:52:00
7:52 AM,10.0,-0.9,61,29.90,10.0,WSW,23.0,28.8,N/A,,Mostly Cloudy,240,2011-01-01 13:52:00
8:52 AM,10.0,3.0,73,29.93,2.0,WSW,21.9,32.2,0.00,Snow,Light Snow,240,2011-01-01 14:52:00
9:49 AM,10.4,6.8,85,29.91,2.0,West,18.4,-,0.00,Snow,Light Snow,270,2011-01-01 15:49:00
9:50 AM,10.9,7.0,84,29.96,2.0,West,19.6,24.2,0.00,Snow,Light Snow,270,2011-01-01 15:50:00
9:52 AM,10.4,6.8,85,29.91,0.8,West,21.9,26.5,0.00,Fog-Snow,Light Snow,270,2011-01-01 15:52:00
10:01 AM,10.4,6.8,85,29.91,0.8,West,21.9,25.3,0.00,Snow,Light Snow,260,2011-01-01 16:01:00
10:04 AM,10.4,5.0,79,29.91,3.0,West,21.9,25.3,0.00,Snow,Light Snow,270,2011-01-01 16:04:00
10:20 AM,12.2,3.2,67,29.91,7.0,WSW,23.0,29.9,0.00,,Mostly Cloudy,250,2011-01-01 16:20:00
10:52 AM,12.9,-0.0,56,29.96,10.0,WSW,24.2,34.5,0.00,,Partly Cloudy,250,2011-01-01 16:52:00
11:52 AM,12.9,1.0,59,29.96,10.0,WSW,24.2,31.1,N/A,,Partly Cloudy,240,2011-01-01 17:52:00
12:52 PM,12.0,-0.0,59,29.99,10.0,West,27.6,39.1,N/A,,Mostly Cloudy,260,2011-01-01 18:52:00
1:52 PM,12.9,1.9,62,30.00,9.0,West,24.2,32.2,N/A,,Mostly Cloudy,260,2011-01-01 19:52:00
2:52 PM,12.9,3.9,67,30.02,6.0,West,25.3,35.7,0.00,Snow,Light Snow,280,2011-01-01 20:52:00
3:31 PM,12.2,5.0,73,29.99,4.0,West,28.8,36.8,0.00,Snow,Light Snow,280,2011-01-01 21:31:00
3:52 PM,12.9,3.0,65,30.06,10.0,West,23.0,31.1,0.00,,Scattered Clouds,270,2011-01-01 21:52:00
4:52 PM,12.9,6.1,74,30.09,9.0,West,15.0,-,0.00,,Overcast,270,2011-01-01 22:52:00
5:52 PM,12.0,3.9,70,30.11,10.0,West,15.0,-,N/A,,Partly Cloudy,270,2011-01-01 23:52:00
6:52 PM,12.0,5.0,73,30.12,10.0,West,16.1,24.2,N/A,,Clear,270,2011-01-02 00:52:00
7:52 PM,12.0,3.9,70,30.15,10.0,West,17.3,26.5,N/A,,Clear,270,2011-01-02 01:52:00
8:52 PM,12.0,3.9,70,30.17,10.0,West,17.3,-,N/A,,Partly Cloudy,270,2011-01-02 02:52:00
9:52 PM,10.9,3.9,73,30.18,10.0,West,11.5,-,N/A,,Partly Cloudy,260,2011-01-02 03:52:00
10:52 PM,10.9,3.9,73,30.19,10.0,West,11.5,-,N/A,,Partly Cloudy,260,2011-01-02 04:52:00
11:52 PM,10.0,5.0,80,30.19,10.0,West,8.1,-,N/A,,Partly Cloudy,260,2011-01-02 05:52:00